Wind_Speed
13 13 13 13 13 13 14 14 14 14 14 14 13 13 13 14 14 15 15 14 15 15 16 16 17 19 20 21 22 23 28 32 33 28 18 19 22 20 14 10 11 9 6 7 9 6 5 4 5 6 5 2 3 3 4 4 2 2 3 5 5 5 6 6 8 6 5 6 6 10 11 7 7 2 2 4 7 7 5 4 3 5 5 8 14 26 33 30
14 13 13 14 13 13 13 13 14 14 14 15 14 13 13 13 14 14 15 15 15 16 16 16 16 18 19 19 21 21 27 32 28 24 23 20 19 21 21 17 13 7 5 6 7 5 2 2 2 4 3 1 3 3 4 3 4 5 3 5 7 6 7 7 8 6 5 7 7 11 10 5 7 5 5 3 3 5 7 4 4 6 7 10 20 29 30 30
14 14 14 14 14 13 13 14 14 14 15 15 14 14 14 13 14 14 15 15 16 16 16 17 16 17 18 18 19 20 26 27 18 14 14 10 10 16 21 24 20 14 10 8 5 5 6 4 3 2 4 2 3 3 4 4 4 4 3 5 6 6 7 7 8 8 8 8 9 10 7 5 8 6 4 6 6 4 7 4 2 4 7 12 16 23 27 28
15 15 15 14 14 14 14 14 14 15 15 15 15 14 14 14 14 14 15 16 16 16 16 16 17 17 17 18 18 20 21 14 7 4 4 7 10 11 15 25 25 21 16 11 9 7 7 5 5 2 4 4 3 3 5 5 4 3 5 6 5 6 8 9 10 10 11 10 7 7 7 8 8 4 2 10 8 1 5 8 9 11 13 15 15 18 22 24
16 16 15 15 15 14 14 14 15 15 15 15 15 14 14 14 14 14 14 15 16 16 16 16 16 16 16 17 17 18 12 4 2 2 8 12 13 12 9 21 26 23 17 12 10 8 8 5 1 1 3 4 4 4 5 7 4 3 6 7 6 6 7 9 11 12 12 10 6 7 9 8 5 4 1 10 8 5 7 8 8 12 14 14 12 13 13 14
17 16 16 16 15 15 15 15 15 15 15 15 15 14 14 14 14 14 14 15 15 16 16 15 16 16 15 16 16 12 2 2 4 3 11 18 13 10 7 13 25 23 17 14 10 7 5 4 3 2 2 4 7 7 6 8 7 5 6 6 7 8 7 7 9 12 11 7 6 8 8 5 3 5 1 4 4 6 4 5 9 11 15 20 20 17 14 13
17 17 16 16 16 16 16 16 16 16 16 15 14 14 14 14 14 14 14 14 14 15 16 16 15 14 14 15 14 6 3 8 12 4 11 19 13 10 7 9 21 23 18 14 11 6 4 5 6 4 3 4 7 9 7 6 8 8 8 6 8 10 10 10 11 11 7 7 7 5 3 3 3 3 1 4 2 5 12 17 18 17 22 28 24 19 18 15
16 16 17 17 17 16 16 17 17 16 16 14 14 14 14 15 14 14 14 13 14 15 16 15 15 14 14 13 8 4 4 15 20 9 11 16 14 15 8 7 17 21 19 15 12 8 5 6 7 5 4 5 4 6 8 6 8 10 10 8 7 9 11 12 14 13 9 8 6 5 5 5 5 1 3 5 6 14 19 18 17 17 19 20 19 20 20 18
16 16 16 17 17 17 17 17 17 17 16 15 14 14 14 14 14 14 13 14 14 15 15 16 15 13 12 8 5 5 9 22 24 16 20 20 14 15 10 5 15 20 19 18 16 10 7 6 7 6 4 5 5 6 7 7 7 9 11 9 9 10 10 11 14 15 13 8 5 7 10 7 5 5 6 4 9 15 18 17 16 17 16 13 13 15 16 16
16 16 16 16 16 16 17 17 17 18 16 16 15 14 14 14 14 14 13 13 13 14 15 15 14 13 11 7 5 6 9 14 14 15 21 20 17 17 13 6 9 19 18 16 18 14 9 6 5 4 4 4 5 6 7 9 6 5 9 10 12 12 11 9 12 13 10 7 8 11 11 8 5 5 3 3 11 15 18 16 15 16 13 11 10 10 12 14
16 16 17 16 16 16 16 17 17 18 17 17 16 15 15 14 15 14 13 13 13 14 14 14 13 12 11 7 5 9 8 6 6 9 14 18 23 22 17 14 9 15 18 14 17 19 15 11 6 1 3 3 4 5 6 9 6 5 7 9 12 14 13 11 13 10 6 5 10 12 9 3 3 3 5 7 10 14 18 14 12 13 10 10 11 9 9 12
16 16 17 16 16 16 16 16 17 17 17 17 17 17 16 15 15 14 14 13 14 14 13 14 12 11 12 7 10 19 15 10 14 17 22 24 26 26 22 20 16 13 15 11 15 22 21 17 10 4 4 2 3 4 5 5 5 8 8 7 11 12 13 15 16 9 7 6 9 9 4 3 6 3 4 9 9 11 16 12 10 10 9 9 9 9 8 11
16 15 17 17 17 16 16 17 17 17 17 18 17 17 17 16 15 14 13 13 14 14 14 14 12 12 10 6 14 29 28 24 27 29 31 29 26 27 24 20 18 17 16 13 15 21 23 21 12 6 5 3 3 3 5 7 4 8 8 7 7 7 10 15 15 8 8 6 7 8 3 3 4 3 3 10 11 12 13 10 8 8 8 8 7 8 8 9
16 15 16 16 16 16 17 17 17 18 17 18 18 17 17 17 16 15 14 14 14 14 14 13 12 11 7 8 19 30 28 29 33 32 32 29 23 25 25 18 16 16 15 16 18 19 22 22 13 6 5 5 5 5 8 6 4 5 6 5 6 6 7 10 11 8 7 5 8 9 4 5 3 2 6 8 9 14 13 8 8 7 6 7 7 8 8 7
16 16 15 16 16 16 16 17 18 19 19 19 19 19 18 18 17 16 15 15 14 13 14 14 12 8 5 10 20 24 18 18 27 26 24 25 19 16 20 16 14 16 15 14 17 16 18 18 10 5 4 4 5 5 5 4 3 3 4 6 6 6 5 6 11 10 8 4 6 8 3 4 3 5 5 4 6 13 14 8 7 7 7 8 7 8 8 7
18 17 16 15 15 16 16 17 17 19 20 21 21 20 20 19 17 16 15 15 14 14 12 11 9 5 3 7 10 14 11 11 19 19 17 20 17 15 19 17 16 17 15 13 14 14 14 13 6 4 3 3 4 3 2 3 4 3 5 6 6 6 4 4 8 10 10 6 4 6 5 3 3 5 5 4 7 12 13 8 7 8 8 8 7 7 8 7
18 18 17 15 15 15 16 16 16 18 19 20 22 22 21 17 14 14 15 14 14 15 12 10 7 4 7 10 10 11 9 9 13 16 17 17 16 18 18 12 11 13 12 12 12 9 8 7 4 4 4 4 4 4 2 5 7 5 4 4 4 5 6 4 5 6 10 8 6 3 5 4 5 6 4 4 8 12 13 10 9 8 7 7 7 7 8 9
19 19 17 15 15 14 15 16 16 17 18 19 21 22 22 16 13 13 14 14 11 10 9 9 7 3 6 9 8 9 9 12 15 16 17 15 14 18 17 9 6 7 7 7 6 5 4 3 4 3 4 5 5 7 8 8 6 4 4 3 3 4 7 7 5 5 7 7 6 4 6 5 7 6 4 4 7 11 12 10 9 8 6 6 6 6 7 8
19 18 17 15 15 14 15 15 15 16 17 19 19 20 19 14 11 9 8 6 3 2 4 4 4 2 6 8 8 10 16 21 19 17 16 14 14 15 17 11 6 3 3 3 3 5 4 3 5 5 7 11 11 11 10 4 1 5 6 4 5 5 6 7 5 6 8 6 6 6 6 8 9 7 6 5 5 9 11 10 8 7 6 5 5 5 6 8
18 19 18 16 15 14 15 15 16 17 17 18 19 16 11 6 4 3 1 2 4 6 7 6 7 5 11 13 8 12 22 24 14 11 14 14 16 11 10 7 4 2 4 4 3 4 5 4 7 11 14 15 12 9 8 5 5 4 5 4 7 5 4 5 4 6 8 6 5 6 10 10 11 8 6 7 6 9 13 13 10 8 7 6 7 7 7 7
19 20 18 16 15 14 15 16 16 16 18 20 17 9 3 2 1 3 4 5 8 12 13 12 11 10 16 20 16 14 15 17 13 14 20 13 20 12 6 6 5 4 5 5 4 3 5 7 13 16 13 9 7 6 7 7 8 8 5 4 6 6 5 5 5 5 6 6 2 7 12 9 8 6 3 6 8 9 11 13 12 10 8 6 7 8 7 7
20 19 18 16 15 14 14 15 16 17 19 17 10 3 4 6 6 8 8 7 10 11 13 14 14 13 20 28 24 15 8 10 15 18 18 10 16 9 7 8 6 5 5 6 5 5 7 12 15 12 6 3 4 6 7 8 8 8 5 4 5 5 4 4 5 5 4 4 2 8 11 5 3 4 3 5 6 5 5 8 11 12 10 7 7 8 9 10
19 19 18 16 15 15 13 14 17 16 14 11 5 6 7 11 13 14 8 5 11 11 9 12 13 11 17 22 18 13 9 9 10 15 15 7 11 8 7 9 8 6 7 10 9 9 8 10 9 7 6 6 6 6 8 7 8 8 5 4 4 4 5 4 5 4 2 3 6 9 8 4 2 3 2 3 4 5 6 6 7 8 8 9 9 8 10 12
19 18 18 17 17 14 12 16 15 10 11 10 8 7 9 14 15 12 5 2 9 9 9 15 12 10 17 16 8 8 8 8 8 12 13 4 8 8 7 8 9 7 9 12 13 11 6 3 9 9 8 10 8 7 9 6 7 8 7 6 4 4 7 5 3 4 5 5 10 12 6 1 2 3 2 2 5 7 8 10 8 6 6 7 8 8 9 11
18 18 18 17 15 13 14 16 9 8 15 10 6 7 10 11 12 7 2 2 6 5 5 12 9 11 21 17 9 7 6 7 9 12 11 5 4 6 6 6 7 9 12 12 12 10 6 3 12 12 11 13 11 9 9 8 6 8 8 8 7 6 6 4 6 6 5 2 6 8 4 2 2 4 4 3 6 8 8 10 11 9 8 7 9 10 9 10
17 17 17 16 13 14 13 8 6 12 15 6 3 10 11 9 8 3 0 1 5 3 1 3 4 9 15 10 8 6 4 8 11 14 13 10 7 3 5 5 5 10 11 8 7 5 4 6 12 14 12 12 12 9 10 10 7 7 6 8 9 9 5 4 7 5 3 3 7 7 5 2 2 5 7 7 9 10 9 11 12 11 10 9 9 9 9 9
18 16 16 15 13 13 9 5 10 13 8 5 8 12 12 9 5 1 1 1 4 2 2 1 1 4 6 8 11 8 3 5 7 12 13 11 7 2 3 5 4 7 7 5 6 5 8 10 12 14 13 10 10 10 10 11 8 6 4 8 8 10 8 6 5 4 3 2 4 6 4 4 4 6 8 9 11 11 11 12 12 12 11 10 8 8 10 10
18 15 14 14 13 12 9 10 13 9 6 10 12 10 12 10 3 0 2 1 3 1 2 3 4 1 1 7 13 9 4 2 2 8 10 11 7 1 2 5 4 6 8 7 5 4 9 12 12 13 12 9 9 9 9 10 8 5 3 6 6 8 8 6 5 6 3 4 2 5 3 4 3 4 7 11 11 12 13 15 14 13 14 11 9 10 11 11
17 15 14 13 14 12 9 9 10 8 9 11 10 8 9 6 1 2 3 0 3 1 3 2 3 2 3 5 10 8 5 2 1 3 6 9 8 4 1 3 3 5 8 8 5 4 8 10 11 11 11 10 8 7 9 10 7 4 5 6 4 5 4 6 6 5 2 4 6 10 7 4 2 4 8 10 11 12 11 13 13 12 13 11 10 11 11 9
16 16 14 13 14 11 7 8 10 6 8 8 8 6 3 2 2 3 1 1 3 4 6 2 1 6 5 2 6 8 8 6 3 1 3 5 6 5 2 3 3 5 6 7 6 5 7 8 8 9 10 9 7 6 8 9 5 3 6 6 5 4 1 2 4 2 3 3 7 13 13 6 3 5 9 10 12 15 12 10 12 12 13 12 10 11 11 9
18 18 16 13 14 11 7 6 5 2 7 8 7 3 2 2 3 2 1 2 3 4 5 3 3 7 7 4 4 8 8 8 4 2 3 3 5 5 3 3 3 3 4 4 7 9 7 9 9 7 8 8 6 5 7 7 6 4 6 4 3 4 2 1 2 1 4 6 6 12 13 7 4 5 10 12 11 16 17 14 17 18 16 14 11 11 11 9
22 20 17 15 14 12 11 8 4 2 7 6 3 1 3 3 1 2 2 4 4 2 2 2 4 7 9 10 6 8 8 7 5 4 4 4 6 5 6 6 4 4 4 5 7 8 7 9 9 6 6 10 9 6 5 6 8 8 7 4 3 2 1 2 3 3 5 6 6 9 11 7 5 6 15 18 12 16 20 18 20 22 19 15 13 12 10 9
25 22 19 16 14 16 17 12 6 4 5 4 1 2 4 1 1 3 3 3 1 1 1 3 5 8 9 8 5 6 9 6 6 5 6 6 5 5 8 8 5 3 4 5 6 6 4 6 8 8 5 9 12 8 6 7 9 10 8 6 5 4 3 4 4 2 3 5 6 9 12 6 4 3 14 21 19 20 21 17 18 21 19 16 14 13 11 10
26 23 18 12 12 16 16 11 6 6 5 2 1 3 4 0 3 3 3 2 1 3 3 3 5 9 8 5 3 5 7 6 6 6 5 6 6 5 8 9 9 6 1 4 4 5 6 5 8 11 7 9 13 11 9 7 7 10 7 6 5 4 5 4 4 3 5 4 3 6 8 4 3 3 9 16 15 14 14 11 12 13 12 13 12 12 11 11
24 18 12 9 11 11 10 12 9 6 5 2 3 3 1 2 3 3 3 2 1 2 3 5 6 6 5 3 4 5 6 5 6 6 5 6 7 7 8 9 12 9 3 5 4 4 7 5 7 10 7 9 12 11 9 7 5 6 4 6 5 5 5 3 4 6 5 3 1 4 3 2 3 3 4 8 10 8 11 10 11 11 9 11 12 11 11 11
21 15 8 9 10 6 6 13 14 10 7 3 2 1 3 3 3 2 2 2 1 3 5 7 4 3 3 2 3 4 6 5 5 6 4 6 8 9 10 7 9 10 6 4 3 4 6 4 6 10 9 10 13 11 10 9 6 4 5 6 6 6 6 3 3 2 3 5 3 1 2 1 1 5 5 9 13 10 12 13 13 12 11 13 13 11 12 12
18 13 7 8 9 6 7 11 16 14 6 2 2 2 3 3 5 4 2 1 1 2 4 4 2 2 2 1 3 3 7 6 5 5 4 5 7 10 12 7 7 12 9 6 3 2 6 3 6 10 13 12 11 12 10 8 7 5 5 7 4 4 3 3 3 2 3 4 4 1 5 4 1 2 2 8 12 11 12 14 14 12 13 15 13 12 13 13
15 9 7 8 7 7 10 13 18 13 4 1 4 4 4 3 4 4 2 2 1 1 2 2 2 2 2 0 4 3 6 6 5 5 5 5 5 9 13 7 7 13 13 9 4 2 4 3 6 8 13 10 7 9 9 7 6 5 5 7 6 5 3 1 3 3 2 3 2 1 4 4 3 5 6 10 13 13 13 14 15 15 16 15 14 14 13 13
10 5 4 5 2 7 15 18 16 8 1 3 4 4 4 4 5 3 1 2 3 3 3 3 3 2 2 1 4 4 2 5 5 4 4 5 4 9 13 8 7 14 13 8 6 3 1 4 4 6 10 9 4 6 7 7 6 4 3 4 4 4 5 3 3 4 4 4 2 2 1 3 4 8 13 16 15 16 16 15 16 18 18 16 14 14 13 14
7 2 2 2 3 12 20 17 10 3 2 3 3 3 3 4 5 2 3 2 3 3 2 2 3 2 3 3 4 4 4 3 4 3 3 6 4 6 11 10 7 12 11 8 6 2 1 3 3 4 4 8 4 6 9 8 6 5 3 3 3 3 3 3 2 3 4 4 4 3 1 5 5 7 15 19 17 18 20 19 17 17 17 16 15 15 13 13
5 2 1 2 8 18 19 10 4 3 3 3 3 4 4 5 5 3 4 6 4 5 4 3 4 4 3 3 4 3 3 4 3 4 2 6 5 3 8 12 9 6 8 7 5 3 1 2 2 1 3 7 6 7 9 9 7 6 4 4 5 5 4 3 2 2 3 4 5 5 3 6 5 7 13 16 17 18 20 20 17 17 18 16 15 15 14 14
3 2 1 3 13 19 12 3 3 2 3 3 4 4 5 6 6 5 3 5 5 5 5 4 5 5 4 5 5 4 4 4 3 4 3 6 9 6 6 13 11 5 5 5 6 5 4 1 3 2 3 7 7 4 7 10 8 6 4 3 4 4 4 6 4 4 1 2 1 4 3 6 5 8 13 14 16 17 17 18 16 15 16 15 14 15 14 13
2 3 3 6 15 16 6 2 3 2 3 3 5 6 6 6 5 6 5 3 3 3 3 4 5 5 5 6 5 5 5 4 4 5 4 6 10 11 11 11 10 6 3 3 5 6 5 2 3 3 3 2 3 3 3 6 6 4 2 2 3 4 4 5 5 4 3 2 1 3 2 5 5 6 11 11 12 13 13 14 15 13 12 13 15 15 14 13
2 3 2 5 13 12 3 3 3 3 4 3 6 8 7 5 6 7 6 4 3 3 3 5 6 6 6 5 6 5 5 4 3 4 5 5 7 15 16 9 10 8 5 4 3 3 4 3 3 3 2 2 2 3 2 1 3 3 3 2 3 5 6 4 2 3 1 4 5 5 4 6 5 3 8 8 8 10 10 10 13 14 13 13 14 14 13 13
3 2 1 2 7 8 2 2 1 3 4 4 6 8 7 5 5 7 8 6 6 5 3 4 5 5 5 6 6 7 5 5 4 4 4 4 4 10 13 9 11 10 7 6 4 1 3 3 3 5 4 4 5 4 4 3 3 3 3 3 4 4 8 5 2 4 1 3 4 5 5 4 3 4 10 9 10 11 10 11 11 12 14 14 14 14 13 14
3 2 0 1 2 2 2 1 1 2 3 3 5 5 5 4 3 5 7 6 7 7 5 6 6 6 6 6 5 5 5 6 6 5 5 3 3 5 8 9 10 12 10 9 6 2 3 2 2 6 6 6 6 6 5 5 4 4 5 4 5 3 7 7 4 4 4 3 3 4 5 4 2 7 11 11 12 13 12 13 12 10 12 13 14 14 14 14
1 2 2 2 1 2 2 2 2 2 2 2 2 3 3 3 4 5 4 4 6 6 4 5 6 4 4 4 3 3 5 5 5 6 6 5 5 4 7 9 8 12 13 8 5 1 3 3 1 6 6 7 7 6 3 5 6 4 6 6 5 3 6 8 4 5 4 4 3 7 5 8 7 9 13 12 12 12 12 15 14 12 13 13 13 14 15 14
1 2 1 1 1 1 1 2 3 4 5 4 2 3 4 5 6 4 3 4 5 4 3 3 6 7 7 6 4 4 5 7 5 4 4 3 3 1 4 7 7 10 11 5 3 1 4 3 4 3 3 4 4 1 3 2 5 6 7 8 5 4 7 7 5 6 6 5 7 7 6 10 10 12 15 16 15 14 14 14 13 13 13 14 14 15 16 16
2 2 2 1 1 2 3 5 5 4 6 5 3 3 4 4 5 5 4 4 6 4 4 3 4 6 7 7 5 3 3 4 5 4 4 4 3 2 4 5 3 5 7 4 4 2 4 1 3 2 2 3 3 3 5 3 3 5 6 8 7 6 8 8 6 6 7 5 7 7 7 6 9 12 15 16 14 13 12 11 12 14 15 16 17 17 17 17
2 3 3 3 4 4 4 4 4 3 3 3 4 4 3 4 4 4 3 3 4 4 3 5 7 6 5 5 4 4 5 4 4 5 6 7 5 3 3 3 2 5 6 4 4 1 3 1 4 4 4 5 5 2 4 5 1 5 6 8 7 5 5 4 4 5 6 1 1 7 8 3 3 6 8 8 8 10 11 13 14 15 16 17 17 17 17 17
6 8 7 5 5 4 3 3 2 2 2 1 3 3 2 3 4 3 3 6 7 5 4 5 7 5 3 4 5 6 7 5 6 8 8 7 5 2 1 1 3 6 5 4 4 1 4 1 4 5 4 4 5 2 3 7 5 1 6 9 7 5 4 3 4 5 7 5 4 6 6 5 3 6 8 8 10 12 13 15 14 13 15 18 18 18 17 17
10 9 7 5 4 3 4 4 2 2 2 2 3 5 5 6 6 4 3 4 8 10 9 8 6 4 3 5 7 7 7 7 9 10 8 6 5 2 2 3 3 3 5 4 2 1 4 3 2 4 3 4 5 1 4 7 6 2 7 8 7 5 4 3 3 4 6 8 7 5 7 6 7 10 10 10 12 13 13 14 14 14 15 17 18 19 19 19
Wind_Direction
342 339 338 336 331 331 329 324 322 321 322 319 317 315 314 318 320 324 324 319 317 311 312 313 314 317 318 318 317 324 327 322 319 315 295 271 263 251 245 218 203 219 227 262 261 249 294 282 246 226 200 195 191 203 220 205 203 194 175 209 218 200 204 195 199 204 197 234 251 264 268 249 270 266 138 29 55 92 92 29 23 33 43 124 129 141 148 140
342 340 338 335 331 331 327 325 324 322 320 316 316 314 312 314 314 319 320 320 318 311 310 310 312 317 319 319 321 327 326 320 313 300 285 277 269 253 237 218 214 217 203 233 238 206 216 277 244 200 163 181 212 194 201 202 189 194 173 200 217 197 204 205 205 216 209 228 246 258 271 265 249 201 155 120 119 114 91 24 14 67 78 111 129 142 143 136
339 339 338 334 332 331 328 327 325 323 320 316 315 313 312 310 310 313 315 318 318 316 312 308 309 313 318 321 324 330 326 320 308 285 289 300 292 263 233 218 219 215 208 222 241 216 204 237 286 202 163 212 243 200 195 217 211 200 186 212 227 208 217 223 219 229 233 237 250 268 288 283 248 214 165 135 143 149 138 147 116 122 133 132 138 143 141 138
338 337 337 334 333 331 328 327 325 324 321 318 315 312 310 306 306 308 311 315 315 318 316 312 312 308 316 322 324 329 326 317 288 267 342 358 342 311 240 218 213 213 216 225 240 240 232 256 311 298 189 207 237 214 205 217 219 202 204 215 216 205 222 228 226 233 240 243 256 293 310 289 263 256 140 126 122 232 202 190 173 166 157 148 148 144 141 137
338 336 336 334 333 330 330 328 325 324 321 319 315 310 308 305 305 305 308 311 312 317 315 317 316 309 316 320 322 329 333 317 256 64 24 352 336 333 277 219 207 209 212 220 233 237 247 249 340 318 215 204 210 209 219 216 207 235 231 218 205 200 220 228 227 233 239 248 276 293 285 274 277 315 136 136 145 210 215 215 181 159 149 139 128 122 114 106
337 336 335 333 332 330 329 328 325 324 321 319 314 310 308 305 305 303 305 307 310 314 314 318 316 314 318 317 323 327 324 275 298 49 16 359 341 327 314 217 203 202 205 213 224 223 228 198 159 204 212 199 207 209 217 211 200 233 246 223 214 210 216 232 232 233 232 238 255 257 251 245 300 317 296 140 194 207 169 83 76 82 89 83 75 74 68 59
337 336 334 331 332 330 328 327 325 324 322 319 315 313 309 308 306 302 303 305 308 313 315 318 317 320 321 325 326 305 191 272 276 279 354 3 8 347 335 205 197 199 203 209 215 207 189 179 182 181 197 214 211 214 220 219 209 223 241 233 228 225 224 234 242 238 218 213 229 240 234 215 262 293 11 20 11 103 82 77 80 79 84 86 85 89 91 87
336 335 332 330 330 329 328 326 325 323 321 319 315 313 310 309 306 302 302 302 306 311 314 316 319 323 323 331 326 281 230 251 245 238 319 341 8 5 348 197 190 198 203 208 209 200 187 196 199 174 194 227 225 216 210 219 228 227 231 233 235 236 231 231 242 247 237 234 234 240 248 234 228 140 60 26 65 91 89 88 91 94 95 99 109 112 114 120
335 333 331 330 330 329 328 326 326 323 319 318 315 313 310 308 306 304 300 299 303 308 312 315 317 322 322 320 303 290 254 243 243 256 287 303 333 354 343 220 195 197 200 210 212 206 198 192 198 192 206 240 256 237 200 201 228 224 222 230 234 238 238 229 236 240 240 239 207 232 254 247 206 98 43 37 95 99 95 96 101 106 105 105 114 118 125 130
334 332 331 330 329 327 327 327 326 322 319 318 315 313 310 308 305 302 299 296 299 303 309 315 317 322 317 294 261 268 259 256 268 267 268 282 305 325 332 310 216 199 198 207 210 208 204 198 193 202 246 258 252 242 208 206 222 215 213 228 233 239 244 231 233 231 231 229 194 214 231 235 212 119 85 98 108 106 103 107 115 114 112 113 119 126 128 126
333 332 330 329 328 327 326 326 325 323 321 318 316 313 310 308 304 301 298 292 295 300 306 311 315 319 305 283 245 246 254 271 271 257 263 285 301 308 311 312 284 214 204 200 208 212 208 220 235 239 250 249 257 261 239 226 239 242 224 234 236 239 246 240 243 228 193 214 204 199 202 249 339 83 122 123 118 117 117 119 119 115 121 127 130 133 128 132
335 332 329 328 328 326 325 325 324 324 321 318 316 312 310 308 305 302 296 290 292 294 302 308 311 314 298 275 240 240 246 261 267 280 287 292 299 299 297 299 297 258 229 208 209 215 211 220 230 231 241 274 299 263 257 260 254 244 232 241 244 242 245 240 245 227 165 195 197 172 162 344 351 8 104 120 129 122 116 117 114 119 131 133 132 130 130 142
334 331 329 327 326 326 325 324 324 324 321 319 314 311 310 307 305 300 295 292 290 291 300 306 307 307 291 264 251 251 257 270 278 288 287 287 295 291 289 289 289 281 259 239 224 218 214 216 217 228 255 282 275 265 301 310 283 243 226 229 244 247 242 235 240 218 171 196 182 156 185 276 321 322 137 131 135 120 109 113 117 123 128 128 131 128 136 149
330 330 327 325 324 323 324 324 324 324 321 319 315 311 307 305 303 297 292 289 288 294 298 301 303 300 278 262 272 271 274 277 276 281 279 279 287 286 284 280 279 282 273 254 241 230 218 213 212 235 259 246 248 298 314 312 289 251 229 219 215 225 239 232 234 202 171 205 166 146 201 234 263 244 166 147 143 124 116 120 120 124 125 128 132 132 142 149
327 328 325 323 323 322 324 325 324 322 321 320 316 311 306 301 297 292 289 286 285 291 295 298 291 281 283 272 276 287 295 280 267 267 266 266 268 276 278 276 281 284 285 268 247 240 224 207 203 228 243 231 235 277 294 295 283 237 218 226 204 212 245 228 225 200 175 204 162 145 181 217 208 225 198 161 150 123 116 120 119 128 131 131 137 140 144 143
326 328 326 322 322 322 324 324 324 321 320 320 316 311 306 297 293 293 291 285 282 284 289 298 279 234 255 276 290 303 294 261 260 262 261 257 245 245 261 273 287 287 290 280 251 240 223 199 190 213 217 240 221 214 295 313 284 231 205 221 204 199 221 226 231 206 176 178 195 167 160 183 186 214 220 162 144 120 116 125 125 135 138 139 146 146 146 141
329 330 327 324 324 324 325 324 323 321 321 320 316 312 308 301 298 297 291 285 282 283 278 272 270 242 246 271 304 309 282 267 269 267 267 259 239 237 248 264 282 284 294 283 251 229 209 188 172 196 203 223 196 155 205 243 241 243 213 209 212 183 178 207 240 208 170 171 209 158 126 167 168 174 186 154 146 126 124 138 140 144 149 150 150 149 150 146
334 334 330 327 327 324 323 322 320 322 321 317 315 312 306 297 293 291 285 284 284 285 275 261 267 273 246 253 273 276 287 308 298 280 266 248 234 230 225 233 269 289 303 282 238 196 176 174 162 183 210 212 197 177 198 213 204 204 187 172 204 176 174 192 209 195 164 172 194 113 96 149 150 154 155 156 161 137 133 144 146 150 152 151 149 150 153 149
337 338 336 330 327 324 320 319 320 322 320 318 319 318 307 291 285 285 276 281 296 289 274 242 197 211 287 263 244 267 298 310 302 287 264 222 210 218 211 224 265 295 283 242 203 181 160 148 162 190 214 210 208 200 206 230 134 171 172 170 188 186 200 196 194 197 162 161 201 149 129 153 156 170 161 158 165 131 132 141 143 150 149 148 149 153 154 148
335 336 335 330 326 322 319 319 320 320 319 320 326 330 324 316 309 304 278 231 205 224 253 243 195 214 285 279 278 304 311 314 303 285 276 216 179 186 198 213 231 225 242 206 185 183 156 164 199 207 211 209 207 196 203 247 283 234 191 195 199 190 222 204 200 216 159 151 220 159 143 159 164 175 161 152 153 137 142 148 152 158 156 158 157 156 154 145
331 331 330 328 324 320 320 320 317 317 315 314 321 331 330 334 329 328 328 284 241 232 243 248 227 227 257 264 283 309 316 316 301 294 292 225 164 158 181 184 191 208 226 200 188 179 158 199 217 212 207 206 200 173 181 222 260 264 234 220 219 200 217 203 194 227 170 157 209 125 134 160 163 160 156 152 154 153 154 154 158 160 158 163 156 153 148 135
330 329 326 325 322 319 320 319 316 314 313 311 309 269 254 275 287 305 310 293 278 255 244 250 244 243 255 259 270 281 281 289 287 294 292 213 161 164 173 171 193 201 204 204 194 182 197 221 219 203 180 183 205 181 182 212 237 258 243 216 233 211 203 218 212 216 172 158 160 125 131 147 145 129 136 154 147 135 141 151 159 159 158 161 157 153 145 135
328 326 326 324 321 321 319 317 317 315 319 320 279 229 274 301 306 307 302 287 289 275 248 245 241 242 256 261 261 255 247 257 270 283 280 214 167 181 171 173 193 194 201 206 196 185 205 226 200 155 145 189 223 201 188 213 231 244 234 200 238 221 177 216 232 204 116 102 131 123 112 102 92 92 118 149 126 106 118 136 148 158 158 157 158 153 146 142
326 325 328 324 319 322 320 316 318 324 332 317 269 264 305 315 315 310 304 290 282 272 239 235 234 232 245 253 242 211 226 235 238 264 272 229 165 183 184 179 181 197 215 211 208 204 214 190 142 141 168 193 218 211 193 207 228 237 227 200 220 223 200 204 179 126 55 67 118 112 86 38 147 148 163 137 122 121 128 136 142 155 152 147 152 151 149 149
324 325 327 326 322 321 320 318 318 335 331 309 268 311 324 319 323 318 323 316 274 272 234 226 223 234 240 240 219 203 238 248 229 242 262 265 195 184 190 184 177 205 215 212 214 217 241 179 148 166 187 191 206 213 200 200 218 243 232 204 207 225 224 178 132 111 66 79 153 127 109 278 221 173 184 155 143 144 138 147 156 160 160 160 161 160 158 152
323 323 324 327 324 322 325 321 315 329 327 307 307 340 336 328 334 325 143 324 275 279 116 188 187 219 226 215 187 185 252 263 245 244 253 263 255 216 195 195 191 210 208 210 222 210 222 199 169 180 192 191 202 214 208 196 204 242 213 176 202 227 227 156 138 135 125 194 215 190 163 188 218 198 189 169 161 160 153 158 165 166 173 180 173 165 158 151
323 321 322 323 322 324 328 305 311 325 320 305 330 342 342 336 333 286 149 348 278 248 119 153 175 191 194 168 154 151 218 259 249 243 239 241 253 284 221 203 190 208 196 193 224 191 179 193 186 185 190 196 202 210 207 191 200 235 177 151 196 222 216 176 163 199 189 152 212 202 147 127 188 197 181 169 166 169 165 165 169 173 183 186 174 165 164 167
322 321 318 317 315 314 309 296 302 307 299 317 327 330 332 330 314 269 80 59 266 194 90 244 215 206 200 155 153 167 236 261 206 230 217 211 223 226 235 223 202 205 199 198 214 175 173 194 194 184 191 205 207 206 200 189 208 243 193 171 199 215 204 166 176 233 213 104 187 219 143 118 188 185 167 169 174 180 174 172 175 178 185 184 172 172 175 179
323 322 316 310 307 305 306 292 278 286 317 331 332 323 322 325 344 58 86 139 267 352 7 270 191 311 319 146 160 195 246 252 212 224 180 192 216 213 244 265 259 238 222 216 210 165 177 198 195 185 197 208 200 198 196 192 211 257 235 221 230 228 198 155 185 226 181 137 201 212 189 140 164 189 172 169 184 192 181 177 181 180 185 185 175 179 180 178
325 321 317 308 301 301 311 288 268 296 350 344 330 332 333 347 58 62 71 277 295 345 342 345 59 331 319 155 174 204 228 238 275 317 181 185 197 203 261 298 283 268 244 225 227 225 196 190 197 198 202 197 177 187 203 197 196 276 264 239 252 267 63 134 201 160 135 218 221 204 195 165 150 196 187 182 190 184 173 176 181 180 187 188 182 183 182 178
327 319 315 305 294 294 302 284 255 347 4 340 324 339 74 36 55 116 200 294 310 342 344 345 345 335 340 333 220 197 217 246 263 261 222 190 168 180 227 241 222 248 261 227 229 247 224 193 201 210 196 175 161 193 211 203 191 232 259 220 226 291 9 35 274 120 179 237 238 202 195 186 182 198 198 206 199 175 173 180 179 180 187 186 182 183 185 181
326 320 310 294 283 273 262 252 220 308 332 327 319 35 77 46 37 206 254 313 311 341 5 301 309 339 337 317 272 195 197 234 236 225 231 199 183 190 201 204 180 180 220 207 205 229 233 214 203 197 188 174 175 195 204 205 197 210 236 198 167 224 244 219 223 212 213 237 243 190 176 201 230 204 196 201 198 183 186 186 178 179 183 180 177 180 184 177
324 319 307 287 271 257 250 253 252 266 305 317 300 58 68 62 252 222 243 295 283 216 244 248 285 311 306 302 285 203 197 213 204 210 239 210 185 208 218 225 226 198 196 186 192 201 218 244 211 190 194 185 184 187 191 204 197 201 213 184 167 172 174 213 222 230 224 239 248 179 163 200 248 211 197 195 193 190 190 188 179 178 177 173 173 175 177 170
321 315 307 288 265 253 247 244 240 238 256 287 72 71 70 237 250 241 249 260 209 228 250 261 293 299 285 261 249 211 200 218 208 194 220 201 179 208 221 225 228 231 178 158 184 185 182 231 215 193 188 185 191 193 187 186 189 206 203 145 158 171 161 204 204 185 210 235 263 163 159 193 195 239 223 196 189 184 177 175 171 170 168 163 166 171 171 166
320 315 307 286 265 255 236 220 216 214 205 157 81 80 125 220 247 257 255 245 252 256 260 274 285 293 291 257 244 222 194 211 215 204 219 200 185 203 211 213 213 213 185 164 190 190 186 227 223 199 187 180 194 198 178 165 185 209 168 133 187 186 157 196 190 180 186 175 168 155 157 211 178 309 301 155 147 153 154 151 155 159 158 158 166 174 169 165
325 324 309 276 266 249 192 197 203 193 172 141 90 148 209 228 228 239 268 259 316 340 312 297 275 255 280 270 268 234 200 198 195 200 234 206 190 207 214 211 204 205 200 177 197 185 181 242 229 192 197 197 193 190 177 175 186 182 160 184 212 173 142 142 195 208 103 131 208 161 104 325 47 352 355 121 132 146 150 152 160 162 160 165 174 177 170 166
328 325 296 267 266 234 179 177 185 179 158 140 173 204 238 241 221 232 300 359 50 10 315 309 288 272 287 267 296 235 189 194 187 184 218 208 197 212 217 212 196 207 212 192 213 184 160 240 260 194 199 216 201 189 194 189 166 152 187 202 193 160 144 105 158 281 57 140 244 91 137 178 130 5 342 121 135 156 159 158 162 162 166 174 178 176 172 167
322 308 282 280 276 226 196 173 167 162 135 181 225 249 252 234 228 242 298 7 342 247 257 264 244 294 330 337 313 292 177 183 189 183 196 202 212 212 209 209 198 210 218 199 212 294 142 182 278 211 193 214 208 186 205 216 176 160 182 180 159 169 214 166 155 188 136 167 252 51 151 191 170 163 168 155 160 167 164 162 165 171 177 179 176 175 169 161
317 290 289 311 311 185 182 168 155 147 136 212 224 246 236 242 257 250 69 11 296 247 243 243 211 263 319 282 302 309 224 195 194 193 183 180 223 220 202 200 208 212 213 186 184 278 113 143 256 238 187 183 181 175 199 219 208 189 160 169 171 164 177 186 166 159 165 186 185 106 128 248 218 178 169 173 176 169 165 171 177 180 182 178 174 172 166 161
322 288 307 1 139 165 165 157 147 151 208 208 222 236 249 272 270 220 141 162 258 245 237 231 206 242 314 295 285 293 292 259 205 207 194 179 211 237 205 200 218 214 204 186 183 229 358 156 231 273 179 162 184 208 197 192 196 195 177 192 200 162 152 170 176 149 139 161 169 141 200 262 244 186 174 176 177 173 173 176 181 182 180 177 174 169 165 163
312 296 331 82 154 160 155 153 165 190 212 234 241 242 265 270 260 242 193 186 211 241 241 240 243 265 301 292 287 284 294 301 231 215 200 178 194 240 210 206 216 204 184 196 211 194 204 209 195 239 167 174 214 223 183 170 175 172 171 197 185 160 141 139 211 242 124 145 168 150 191 259 244 186 181 177 176 179 179 175 177 179 176 174 173 169 164 162
294 302 314 153 163 160 152 176 221 201 225 243 247 255 272 266 263 285 262 194 197 229 235 239 245 252 252 244 256 267 277 297 259 226 192 181 198 218 220 210 209 184 155 195 223 197 177 148 142 187 208 194 216 220 157 158 159 150 166 192 162 145 129 130 180 235 172 150 161 128 177 262 254 188 184 181 179 180 178 174 172 172 172 168 166 165 161 159
287 302 279 191 172 159 148 239 225 224 239 257 278 271 274 278 277 295 294 241 211 210 219 238 238 232 227 222 228 260 279 280 251 231 207 186 199 215 227 210 193 188 173 201 229 204 192 179 163 216 296 292 284 323 117 142 134 130 206 196 151 165 160 150 166 184 184 191 140 107 194 262 278 203 184 180 176 173 172 171 164 162 165 163 161 162 159 157
294 286 271 206 174 158 157 250 221 243 249 264 279 273 276 280 269 269 273 257 225 201 205 230 229 219 222 231 237 258 281 276 271 262 229 199 198 216 226 204 170 190 208 190 206 206 204 206 143 131 46 19 324 336 1 124 131 159 218 216 188 170 149 153 134 105 197 217 157 139 200 250 285 202 168 157 151 159 165 164 162 160 161 161 161 162 159 156
303 249 199 225 179 163 190 249 223 263 271 284 284 282 280 269 254 250 253 252 240 230 232 245 253 262 266 269 265 265 262 232 244 292 258 222 214 219 217 187 169 194 217 217 221 158 161 192 122 126 150 162 180 212 221 198 174 188 185 190 223 178 142 159 150 109 226 236 152 149 197 251 309 140 155 155 148 155 163 165 167 166 162 162 162 160 160 159
321 281 240 306 197 188 234 245 219 252 272 288 285 277 256 247 271 265 259 257 239 231 241 255 269 288 277 269 274 274 256 220 220 266 280 254 261 230 195 168 174 198 217 239 257 66 111 221 117 128 160 178 185 214 212 164 162 201 181 183 242 212 130 114 114 155 196 186 181 213 183 151 120 148 160 169 162 161 165 166 168 166 163 164 162 161 163 163
314 301 310 341 300 252 246 233 201 216 251 264 287 294 261 269 309 299 268 253 239 229 233 238 237 249 267 278 295 280 276 276 245 244 262 251 244 234 178 158 175 201 210 237 278 61 119 254 239 128 162 193 194 227 237 142 142 171 177 193 244 212 128 111 135 189 165 132 232 256 183 146 163 170 167 172 170 168 169 169 168 166 165 164 161 160 161 161
325 308 308 8 325 240 280 276 229 231 252 249 267 301 280 275 286 283 271 293 287 250 222 237 225 222 242 259 270 281 299 320 309 259 266 272 266 290 159 162 180 198 199 220 287 132 124 221 237 152 171 206 182 281 337 116 147 155 174 201 225 185 153 151 182 187 144 150 219 226 179 165 174 173 170 174 176 176 174 169 164 160 158 158 159 161 163 164
330 315 308 344 298 257 266 281 275 263 257 242 239 265 268 267 265 258 261 306 309 258 208 253 262 234 242 245 238 261 293 319 315 297 314 321 321 45 119 157 166 175 183 213 260 176 113 234 283 88 84 343 17 22 7 28 160 166 182 208 210 187 174 176 189 172 150 193 214 169 157 185 186 177 176 176 175 170 161 151 149 154 158 160 163 165 168 170
356 314 315 309 290 273 259 275 286 279 259 236 242 253 245 246 254 259 242 233 282 291 201 223 261 267 276 271 243 249 256 241 242 260 295 315 328 30 109 157 129 136 162 205 256 284 91 250 304 44 61 341 335 333 5 19 129 192 217 230 211 184 178 184 182 145 129 219 262 127 137 187 215 168 150 138 134 135 141 151 158 163 163 163 166 169 171 173
328 292 297 303 297 303 308 290 263 272 291 231 236 264 253 237 236 250 257 220 222 247 234 229 262 275 282 299 289 278 282 273 253 258 269 277 290 341 100 114 97 124 155 194 237 316 65 56 328 41 66 316 308 296 357 19 42 201 246 245 224 194 183 195 206 175 149 139 83 96 142 180 171 127 114 113 132 145 156 161 162 165 166 165 168 171 173 175
325 296 296 299 287 316 341 318 292 304 300 213 239 273 268 265 260 252 279 252 219 228 243 251 272 302 319 316 302 287 289 292 284 277 262 247 262 312 33 16 25 131 168 183 196 151 95 95 3 57 91 287 299 356 50 45 49 305 256 232 214 212 198 178 211 206 165 140 130 156 194 190 152 139 139 146 153 159 168 168 162 165 170 173 174 174 175 178
Height
832 831 830 828 827 826 825 824 823 822 822 820 819 819 818 817 816 815 814 812 811 810 809 808 807 806 804 802 801 798 796 791 787 786 783 777 776 777 778 778 777 779 780 780 780 781 782 782 783 783 786 787 788 787 786 786 785 790 797 805 809 808 803 796 793 791 790 787 783 776 771 777 777 770 765 765 769 772 773 773 770 768 765 765 768 772 778 784
831 830 829 828 827 826 825 824 823 822 821 820 819 818 817 816 815 814 813 812 811 809 808 807 806 805 804 802 800 799 796 791 787 782 775 772 773 774 775 776 776 778 778 779 779 780 782 783 782 784 786 787 787 785 787 784 784 791 795 801 802 799 792 785 784 783 782 783 780 774 771 774 774 769 765 771 781 776 777 780 776 775 772 770 770 774 781 786
830 829 828 827 826 825 824 823 822 821 820 819 818 817 816 815 814 813 812 811 810 809 807 806 805 805 804 802 801 799 796 792 786 777 770 769 770 770 771 773 774 776 777 778 779 780 781 782 782 784 786 788 786 785 787 784 783 787 791 798 795 788 785 780 779 779 777 777 778 776 772 772 769 763 763 772 782 780 780 781 779 781 779 775 774 776 781 786
829 828 827 826 825 824 823 822 821 820 819 818 817 816 815 814 813 813 812 811 809 808 807 806 805 804 803 802 801 799 797 792 781 770 768 769 768 767 768 769 772 774 776 777 778 779 780 782 783 783 786 788 786 785 786 783 782 784 785 791 787 782 783 779 776 775 773 773 776 777 775 774 766 760 764 772 783 786 780 773 770 775 776 776 777 778 782 788
828 827 826 825 824 823 822 821 820 819 818 817 816 815 814 813 812 811 811 810 809 807 806 805 804 803 802 801 800 799 798 788 773 767 768 768 767 766 766 767 770 773 775 777 777 779 780 781 783 784 786 787 787 786 784 779 779 782 780 780 779 779 781 776 772 772 770 771 775 778 778 774 764 762 766 770 780 781 772 765 764 767 772 776 780 785 791 796
827 826 825 824 823 822 821 820 820 818 818 816 815 814 813 812 811 811 810 809 808 807 806 804 803 802 801 801 799 800 799 782 767 767 767 765 765 764 765 766 768 772 774 777 777 778 779 780 783 785 785 784 785 784 781 776 777 782 779 775 775 775 777 773 769 768 768 772 776 776 772 767 766 767 764 766 771 768 761 763 769 774 777 782 788 795 801 807
826 825 824 823 822 821 820 819 819 817 817 815 814 813 812 811 810 810 808 808 807 805 805 804 802 802 800 800 798 798 800 783 766 767 766 765 766 764 766 766 768 772 773 775 776 777 778 779 782 783 784 784 782 781 778 776 775 781 780 774 773 772 773 770 767 766 767 772 772 770 767 766 769 768 765 767 767 763 764 768 773 778 781 784 789 795 800 807
826 825 823 822 821 820 819 818 817 816 815 814 813 812 811 810 809 808 807 807 806 805 804 803 802 801 800 800 798 798 798 780 764 766 766 766 767 766 768 767 768 771 772 774 774 776 777 779 780 780 784 783 779 778 777 778 778 778 777 773 771 769 768 767 765 765 767 769 767 768 769 767 766 765 768 773 770 765 767 771 775 779 783 786 789 790 792 798
825 824 823 822 820 819 818 817 816 816 814 813 812 811 810 809 808 807 807 806 805 805 803 802 802 800 801 799 800 799 787 769 764 767 767 767 768 767 769 769 769 770 771 773 773 775 776 776 777 777 781 780 777 776 774 780 780 772 772 772 769 768 765 764 764 763 765 766 766 771 771 767 763 764 775 777 772 769 770 774 777 780 786 791 793 791 791 793
824 823 822 821 820 819 817 816 815 814 813 812 811 810 809 808 807 806 805 805 804 804 802 802 801 800 801 797 801 798 775 764 768 768 767 768 768 767 769 770 770 769 770 771 771 773 773 774 774 773 777 776 775 774 772 775 772 765 768 769 767 767 762 762 763 761 763 764 765 771 770 766 760 766 781 780 773 772 773 777 779 781 789 794 796 794 791 793
823 822 822 820 819 818 817 816 814 813 812 811 810 809 808 807 806 805 804 804 802 802 801 801 800 800 799 797 801 792 769 765 769 766 767 768 767 767 768 769 770 770 769 768 768 769 770 771 771 773 776 774 772 772 769 766 765 764 766 768 766 765 762 760 760 759 762 764 762 765 767 766 764 770 781 779 776 774 774 780 782 785 792 794 794 792 791 792
823 822 821 819 818 817 816 815 814 813 811 810 809 808 807 806 805 804 803 802 801 801 800 800 799 798 797 797 793 778 766 766 766 765 766 766 767 766 766 768 769 770 768 767 767 766 769 770 771 775 774 772 775 774 767 762 763 764 765 771 769 766 765 760 757 757 760 761 756 760 771 776 778 782 782 778 779 777 777 783 786 788 792 793 792 791 793 793
822 821 820 818 817 816 815 814 813 812 810 809 808 806 806 804 803 802 801 801 800 799 799 799 798 797 798 793 779 769 768 767 765 765 764 764 766 763 763 766 765 767 767 766 765 764 767 768 771 773 770 773 777 771 764 761 763 764 763 770 772 773 769 758 755 756 759 758 750 759 780 790 792 790 783 779 780 781 784 788 789 791 792 793 793 792 794 795
821 820 819 817 816 815 814 813 812 811 809 808 806 805 804 802 802 800 799 799 798 798 798 797 797 796 796 786 770 766 768 767 766 765 761 763 765 762 760 762 763 763 764 764 764 763 765 766 770 772 770 772 772 768 767 767 766 765 765 768 772 778 772 756 753 756 760 757 748 760 779 789 795 792 784 782 781 780 786 791 791 792 792 793 793 793 794 794
820 819 818 817 815 814 813 811 810 809 808 806 805 803 801 801 799 798 798 797 796 797 796 795 795 795 795 783 768 764 765 765 764 761 759 761 764 763 759 760 761 761 761 762 761 762 763 765 769 771 770 768 769 773 776 774 769 766 772 774 771 775 771 756 751 753 759 757 751 760 778 789 794 791 784 783 783 780 787 793 793 794 793 794 794 793 794 794
819 818 817 816 814 813 812 810 809 807 806 804 803 801 799 798 796 796 796 794 795 795 794 795 792 794 795 781 766 763 762 761 759 757 757 759 762 762 759 760 760 759 760 759 759 760 761 763 766 767 769 769 772 777 780 782 777 768 772 776 771 772 773 762 751 748 751 756 756 758 778 796 792 786 784 782 784 783 788 795 795 796 795 794 795 794 794 794
818 817 816 815 814 812 811 810 808 806 805 803 800 798 796 794 794 793 793 793 793 791 792 792 790 794 789 773 765 762 759 758 757 756 755 756 759 759 760 761 760 759 758 757 757 757 759 761 764 766 767 769 772 776 786 791 784 774 771 772 768 767 770 766 756 749 746 753 759 758 774 791 786 783 785 783 784 784 789 796 795 796 796 795 795 795 795 794
817 816 815 813 812 811 810 809 807 805 804 801 799 796 793 792 791 791 790 791 790 790 791 790 792 793 777 765 766 761 756 758 756 754 754 754 756 757 759 761 760 760 759 758 756 756 759 759 762 768 769 770 770 774 783 780 773 775 774 771 767 764 765 764 757 750 747 753 758 763 778 789 785 784 786 785 784 785 790 794 795 796 796 796 797 797 797 795
816 815 813 812 811 810 809 807 806 804 803 800 798 795 791 789 789 789 788 790 790 789 788 786 790 787 769 760 763 759 757 757 754 751 751 751 754 756 758 760 760 761 762 761 758 756 758 760 765 771 768 764 762 765 770 765 762 767 767 765 765 763 763 759 753 746 745 756 759 764 781 789 787 787 785 786 786 787 792 794 795 797 797 798 799 799 799 797
815 813 812 811 810 809 808 806 805 803 802 800 798 795 792 790 790 789 788 789 788 785 782 780 781 779 768 759 758 760 757 753 751 749 747 749 751 755 758 759 760 763 764 762 760 754 756 766 768 762 756 753 755 758 761 761 759 760 761 762 760 762 762 755 751 744 742 755 760 764 781 788 787 788 786 787 789 790 793 794 796 797 798 798 799 799 799 798
814 812 811 809 808 807 806 805 804 802 801 799 799 798 796 794 795 794 790 786 781 779 778 775 775 775 767 758 757 762 760 754 750 746 745 746 748 754 757 758 762 765 764 761 757 753 757 765 758 748 749 751 754 756 757 759 759 760 762 762 761 761 759 752 749 745 743 753 764 771 784 789 788 790 790 788 791 792 792 793 795 796 798 798 797 799 799 798
813 811 809 808 807 806 805 804 803 801 800 799 798 798 796 794 795 794 793 788 777 774 775 771 772 771 762 756 758 763 766 761 753 744 742 744 746 751 752 755 762 764 762 759 757 759 760 755 745 745 750 752 753 753 755 758 759 761 763 764 764 759 756 753 747 745 745 753 771 781 786 792 792 790 793 792 791 793 793 793 794 795 796 797 798 798 799 799
812 809 808 807 805 804 803 802 801 800 799 798 797 797 794 792 792 792 793 791 778 768 769 767 767 767 759 755 756 761 763 762 756 746 740 743 745 747 749 754 760 761 760 757 755 759 759 748 742 747 750 751 754 753 754 758 759 761 763 766 766 757 755 758 751 748 751 757 774 785 789 795 795 792 792 792 791 792 793 794 794 794 794 795 796 797 798 799
810 808 808 806 804 803 802 801 799 799 798 797 796 794 793 791 791 791 791 791 781 765 761 759 760 760 753 750 754 758 759 756 754 746 738 742 743 744 747 750 756 759 755 752 750 752 751 742 740 745 748 751 755 753 754 760 761 760 760 764 764 756 753 754 752 753 761 770 773 782 797 801 796 796 795 791 791 792 793 795 796 795 795 795 796 796 797 797
809 808 806 804 804 802 801 800 798 798 797 795 795 793 793 791 790 791 791 792 784 764 755 754 754 751 744 747 752 752 754 751 746 742 738 740 741 742 745 745 750 755 751 749 749 751 748 739 737 743 745 747 752 754 753 756 762 761 756 755 757 755 752 753 754 757 773 788 777 774 799 808 798 797 797 793 793 794 794 795 795 796 795 795 795 794 794 794
807 806 804 803 803 800 800 798 797 797 795 794 794 792 792 791 790 790 791 797 788 764 755 755 750 743 738 744 748 750 758 750 738 738 738 739 739 738 743 742 742 746 746 746 747 746 745 738 736 740 744 746 750 752 748 749 762 764 751 746 750 752 754 756 756 762 777 786 772 764 786 805 802 797 795 793 794 795 795 795 794 794 794 793 793 793 793 794
806 805 803 802 801 800 799 798 797 797 795 794 792 792 791 789 790 789 790 801 790 762 755 755 748 740 736 738 741 751 760 746 733 734 734 737 738 736 742 742 740 742 739 743 749 742 737 738 738 738 742 746 749 748 742 743 756 758 743 741 748 750 755 756 755 761 767 768 768 766 773 794 803 796 791 792 794 797 795 794 794 792 791 791 792 793 793 793
804 803 802 801 800 800 799 797 797 795 795 794 791 792 791 789 791 789 794 800 777 751 750 751 744 739 737 737 739 744 746 737 734 733 729 735 738 736 742 742 739 740 733 740 750 739 731 737 738 737 743 745 743 740 736 739 749 747 738 740 744 746 751 753 753 757 758 763 778 777 771 788 803 794 788 791 794 796 794 791 791 789 788 789 791 793 792 792
803 802 801 800 799 798 797 797 796 794 793 792 792 792 789 790 790 789 798 791 759 744 748 744 741 742 740 740 741 742 739 735 736 731 727 734 735 735 741 740 738 739 733 736 743 735 728 730 730 734 740 739 736 734 731 737 743 738 735 741 742 743 746 749 753 756 759 770 782 778 769 782 801 796 788 792 793 791 790 787 787 787 786 787 789 790 791 792
802 800 799 799 797 797 796 795 793 793 793 792 792 791 789 791 791 797 807 786 755 751 751 744 748 749 744 744 745 744 741 737 734 731 730 732 733 736 738 737 738 740 735 733 737 732 724 722 724 726 728 728 730 730 729 732 737 735 735 742 745 746 746 749 752 754 768 779 773 767 763 769 791 797 785 780 777 774 780 784 784 785 785 786 787 788 789 790
800 799 798 797 796 796 795 793 791 792 792 792 792 790 790 793 794 804 804 775 756 761 757 752 755 751 749 750 748 744 743 740 735 735 735 733 735 739 740 739 741 743 742 739 737 732 725 724 722 718 717 721 727 729 728 728 733 737 739 744 752 755 753 757 759 760 775 780 760 755 759 760 778 789 777 766 761 761 769 773 777 780 780 783 785 786 787 788
798 796 795 794 794 794 793 791 790 791 792 791 792 790 792 798 800 802 791 767 763 770 765 761 758 752 753 752 746 742 742 741 737 737 738 736 738 740 740 741 740 744 749 744 738 735 731 724 718 716 715 716 725 734 734 732 734 741 743 749 761 767 768 772 773 770 773 766 747 744 756 762 767 768 761 759 759 759 758 758 763 769 773 778 782 784 785 786
795 793 791 790 790 790 789 789 789 791 791 790 792 790 794 803 801 790 780 771 769 769 766 764 759 754 755 753 745 739 739 739 735 737 737 735 738 739 738 736 733 738 743 741 740 740 738 727 718 720 719 712 719 733 739 737 735 740 744 752 764 771 779 784 780 775 770 757 743 740 751 762 760 751 748 749 749 749 750 752 757 761 767 774 778 781 783 784
791 789 787 786 785 785 785 787 788 790 791 790 792 792 799 808 798 780 773 769 766 765 764 763 760 755 752 750 742 735 738 739 733 735 737 735 739 740 737 734 731 732 734 737 740 739 742 738 722 717 717 710 712 720 726 729 732 734 734 743 755 758 766 775 772 769 764 755 749 747 753 761 757 748 743 739 741 745 749 755 760 764 769 773 777 780 781 783
787 785 784 782 782 782 782 785 786 788 791 791 793 798 804 805 793 779 771 765 763 764 763 760 759 757 752 745 737 730 733 736 732 734 735 733 737 737 733 730 728 729 731 735 735 730 737 734 713 706 708 706 711 713 712 723 733 731 728 739 749 744 744 755 759 756 751 750 754 756 761 761 752 747 741 738 744 751 754 760 765 770 774 776 778 779 779 781
784 782 782 780 779 780 780 782 785 787 789 790 794 800 800 791 781 774 767 764 765 767 766 760 756 758 756 743 734 729 727 729 731 735 733 729 731 730 726 724 722 725 727 728 726 725 733 728 706 703 707 702 706 708 706 718 728 728 733 739 737 730 732 744 754 753 749 752 756 760 768 765 756 753 749 745 751 757 759 763 767 771 775 776 777 777 778 779
783 781 780 778 777 779 779 781 784 786 788 791 794 792 786 777 771 768 765 766 769 769 770 766 757 754 752 742 732 726 724 726 729 733 732 728 727 724 722 719 717 719 720 720 719 715 723 726 708 703 710 703 698 703 704 706 711 722 733 730 725 729 731 736 749 758 758 758 757 760 767 768 764 764 760 756 760 763 763 765 768 772 774 775 775 775 775 777
782 780 779 776 776 777 778 781 783 785 788 792 792 785 777 772 766 763 764 767 769 768 769 769 760 751 750 749 739 728 726 728 728 729 729 727 723 718 717 717 713 712 711 714 720 713 713 723 713 700 706 704 696 704 713 707 702 711 717 714 720 738 742 740 747 758 763 764 762 763 767 764 762 764 764 762 763 763 764 765 768 770 771 771 772 772 774 777
781 781 778 775 775 775 777 780 781 785 789 790 790 784 775 770 764 761 764 766 767 768 767 766 762 755 751 750 745 735 728 726 725 724 724 725 722 713 710 712 710 708 706 710 719 716 711 720 717 701 698 702 701 710 721 717 707 705 709 710 714 724 732 734 740 747 754 760 762 767 773 763 752 752 754 755 755 756 759 762 762 763 764 765 767 769 772 775
781 782 779 775 776 776 778 781 782 786 787 785 784 780 772 767 763 761 763 764 766 766 764 763 761 758 753 748 744 737 729 723 721 719 717 719 719 712 707 707 705 704 705 707 713 714 711 715 718 707 699 705 710 710 712 715 713 712 717 720 717 716 720 727 734 736 740 751 758 769 776 758 737 736 740 742 745 746 747 750 754 756 759 761 763 766 769 773
782 783 780 776 776 776 778 782 783 784 784 781 778 775 771 767 762 760 760 761 764 762 760 760 759 756 754 750 744 738 731 725 719 715 713 715 717 712 704 701 701 701 705 710 712 712 712 713 714 713 710 711 707 698 697 703 707 710 714 717 716 717 721 733 742 734 727 738 747 756 763 746 725 726 730 732 735 736 736 740 746 751 755 758 761 763 767 771
784 783 780 777 777 777 779 782 782 782 781 777 773 769 767 763 760 758 757 759 762 760 757 758 756 754 753 751 745 740 734 725 718 713 709 709 712 708 698 694 697 698 702 710 709 704 707 711 712 713 711 707 699 692 693 695 698 704 707 707 711 715 719 731 741 734 725 732 736 739 747 737 721 720 723 725 728 729 731 736 741 748 752 756 760 763 766 770
785 783 779 777 777 777 781 782 780 781 778 772 768 765 763 761 760 758 756 756 758 758 758 756 752 750 748 745 741 736 731 723 715 710 705 704 704 699 692 690 696 698 700 706 704 699 704 710 712 712 708 701 695 692 692 692 696 705 707 704 707 712 713 714 722 726 725 730 734 740 747 737 721 719 720 722 726 729 732 736 740 748 752 756 760 763 767 771
785 782 779 778 777 778 782 781 777 777 774 770 769 766 763 761 759 758 757 755 753 755 757 752 746 744 741 738 734 730 728 725 716 707 703 702 697 690 688 689 694 698 698 700 698 696 702 709 710 715 719 715 711 707 704 701 701 706 707 703 703 707 708 708 714 723 728 730 730 737 744 736 723 721 723 724 730 734 737 739 741 746 751 756 759 762 767 771
785 781 778 778 777 777 780 779 778 777 773 772 772 768 766 763 757 754 754 753 749 749 750 744 739 738 735 733 730 725 723 724 719 708 701 699 691 684 687 690 692 695 693 692 690 688 698 705 705 713 725 727 726 722 715 710 706 705 704 702 701 704 707 711 718 726 732 736 731 730 736 735 727 725 727 728 733 738 741 742 744 746 749 753 757 761 766 770
785 781 778 779 779 779 780 780 781 780 775 775 773 767 765 763 755 749 749 748 745 743 744 741 736 735 733 730 730 725 718 717 716 708 702 699 692 682 683 688 690 691 690 690 689 688 695 701 700 704 712 715 716 711 704 702 706 707 705 703 704 706 708 712 721 725 726 730 730 726 728 732 732 731 731 732 733 736 740 742 745 749 751 753 756 760 764 768
785 782 779 780 780 780 780 780 781 780 775 773 771 764 762 762 757 751 747 744 741 738 739 737 734 735 733 730 730 726 718 713 710 706 701 696 689 681 679 685 688 689 691 691 690 692 698 702 701 701 703 704 704 701 696 698 703 706 705 704 706 709 709 711 718 720 721 727 730 725 723 727 732 732 730 731 733 735 738 740 742 747 751 754 757 760 764 769
784 782 779 780 780 779 777 776 777 777 774 773 771 765 763 763 761 757 748 742 738 735 735 734 732 733 732 730 731 728 719 713 708 702 696 690 688 685 683 686 687 687 691 693 691 693 700 703 702 701 702 702 700 698 696 697 699 699 701 703 704 709 711 709 710 713 718 721 719 718 722 725 726 727 725 725 727 729 732 735 738 744 749 753 758 762 765 768
785 784 780 780 780 779 777 775 775 775 774 773 771 767 765 763 760 756 750 746 743 736 734 735 730 728 728 726 728 726 720 716 712 706 700 694 689 688 689 694 693 690 691 694 693 693 699 704 703 700 701 701 699 697 696 698 700 699 698 699 702 708 710 706 705 709 713 714 710 713 723 725 719 718 717 715 718 722 728 734 739 745 750 753 757 761 764 766
791 791 786 782 779 776 776 775 775 774 771 769 768 765 763 761 757 753 749 748 747 738 731 732 728 725 725 722 721 721 716 716 717 713 708 702 693 689 692 695 694 693 693 695 695 692 696 707 706 700 703 705 700 698 697 698 703 704 700 699 701 707 713 711 708 709 711 715 718 719 723 723 717 713 714 716 720 725 731 736 741 744 747 752 756 760 762 765
795 793 790 787 780 772 771 772 773 772 768 766 766 761 758 755 751 750 746 741 741 737 729 726 724 722 721 719 717 715 710 710 712 709 706 705 698 692 692 692 691 694 695 696 696 692 696 709 709 704 711 713 705 703 701 697 702 707 705 702 702 706 711 712 709 705 704 712 727 730 723 719 717 716 718 721 724 728 733 736 740 744 746 750 754 757 760 763
795 791 789 789 781 771 770 770 769 768 764 761 761 758 754 751 746 746 745 735 732 732 728 724 722 719 720 718 713 709 706 705 705 702 700 698 693 690 690 690 691 694 695 696 697 697 700 709 712 713 718 718 711 707 703 701 711 717 710 705 705 704 705 708 705 701 699 707 722 727 716 710 714 716 720 725 726 730 733 734 737 743 746 748 750 752 756 759